Location: Cornospital
(48.0620°N, 3.3837°W)
Time: 12:53:21
(UTC+00:00)

Daily predictions for brighter satellites

Satellite Brightness Start Highest point End
(mag) Time Altitude Azimuth Time Altitude Azimuth Time Altitude Azimuth
Cosmos 2344 4.4 17:20:58 10° NW 17:29:39 56° NE 17:41:30 10° ESE
FengYun 1-2 T 4.3 17:33:45 10° SSE 17:39:19 74° ENE 17:44:59 10° NNW
Cosmos 990 Rocket 4.3 17:34:50 10° S 17:39:49 49° ESE 17:44:48 10° NNE
YAOGAN 1 3.9 17:37:43 10° ESE 17:40:43 19° ENE 17:43:44 10° NNE
Cosmos 1844 Rocket 2.9 17:35:39 10° SSW 17:41:19 78° WNW 17:47:00 10° NNE
Cosmos 1892 Rocket 4.0 17:37:12 10° SSW 17:41:29 66° W 17:45:49 10° N
Aureole 3 Rocket 3.8 17:39:47 10° NNE 17:42:25 22° ENE 17:45:27 10° SE
H-2A R/B 2.8 17:38:17 10° S 17:42:27 74° WSW 17:46:48 10° NNW
Cosmos 1818 4.1 17:37:28 10° SW 17:42:50 61° NW 17:48:16 10° NNE
COSMOS 2406 3.6 17:37:51 10° NNW 17:43:23 44° NE 17:48:53 10° SE
Cosmos 2082 Rocket 3.2 17:38:45 10° N 17:43:29 26° NE 17:48:12 10° E
Cosmos 1844 3.8 17:39:39 10° SSW 17:45:21 88° WNW 17:51:09 10° NNE
NOSS 3-1 (A) 4.1 17:39:59 10° NW 17:47:14 64° NE 17:55:43 10° SE
Cosmos 1703 3.7 17:44:00 10° SSE 17:47:38 40° E 17:51:18 10° NNE
X-37B 1.5 17:44:38 10° W 17:47:43 46° S 17:50:48 10° ESE
ISS -3.2 17:47:23 10° W 17:50:40 47° N 17:53:50 11° ENE
Cosmos 1812 Rocket 3.8 17:47:24 10° N 17:51:37 44° ENE 17:55:46 10° SSE
Meteor 2-1 Rocket 4.2 17:47:53 10° NNW 17:53:27 89° W 17:58:57 10° S
ATLAS 2AS CENTAUR R/B 4.3 17:46:59 10° WNW 17:53:33 28° NNW 17:59:53 10° NE
Okean O Rocket 1.8 17:51:24 10° S 17:55:50 79° WSW 18:00:15 10° NNW
ATLAS 5 CENTAUR R/B 3.7 17:52:59 10° WNW 17:56:00 18° NNW 17:59:19 10° NNE
Iridium 4 Rocket 4.0 17:54:57 10° N 18:00:00 38° ENE 18:04:37 10° SSE
CZ-4 R/B 2.2 17:56:44 10° SE 18:00:11 28° ENE 18:03:36 10° N
ERS-2 3.4 17:59:12 10° NE 18:02:02 21° E 18:04:50 10° SE
SKYMED 2 4.0 17:57:58 10° NNE 18:02:08 43° E 18:06:15 10° S
CZ-4C R/B 4.1 18:01:45 10° NW 18:06:12 21° N 18:11:17 10° NE
Okean-O 3.3 18:03:44 10° SE 18:07:41 33° ENE 18:11:40 10° N
Cosmos 1340 2.6 18:07:24 10° S 18:11:05 60° E 18:14:49 10° NNE
Cosmos 2278 Rocket 2.7 18:06:29 10° S 18:11:41 39° ESE 18:16:55 10° NE
USA 234 4.0 18:05:52 11° ENE 18:11:43 42° N 18:17:47 10° WNW
Cosmos 1346 Rocket 3.8 18:08:27 10° SSE 18:11:44 26° E 18:15:02 10° NE
CZ-2C R/B 3.2 18:10:42 10° SSE 18:16:10 69° ENE 18:21:54 10° N
CZ-4B R/B 4.4 18:13:20 10° S 18:18:44 49° W 18:24:14 10° NNW
COSMOS 2455 4.3 18:15:18 10° WSW 18:20:40 32° NW 18:26:04 10° NNE
Cosmos 405 2.9 18:18:20 10° N 18:21:53 67° ENE 18:25:22 10° SSE
Cosmos 1455 3.9 18:18:50 10° NNW 18:22:24 37° W 18:25:57 10° SSW
NOSS 2-1 (E) 3.1 18:20:40 10° SW 18:23:57 68° NW 18:26:47 15° NE
Cosmos 1627 Rocket 4.4 18:20:58 10° S 18:27:10 72° E 18:33:27 10° NNE
Cosmos 1626 Rocket 4.1 18:23:23 10° SSW 18:27:45 63° WNW 18:32:12 10° N
TELKOM 3 2.7 18:25:57 10° WNW 18:28:07 66° NNE 18:28:34 47° ENE
ARGOS 3.5 18:24:51 10° SE 18:29:49 40° ENE 18:34:49 10° N
Cosmos 1869 4.3 18:26:47 10° NNE 18:30:01 24° ENE 18:30:10 24° ENE
PSLV R/B 4.3 18:29:23 10° NNE 18:33:27 45° E 18:37:28 10° S
Cosmos 1898 Rocket 3.8 18:29:25 10° SSW 18:34:40 71° WNW 18:39:54 10° NNE
Cosmos 372 Rocket 4.2 18:30:24 10° S 18:35:23 49° ESE 18:39:58 13° NNE
Cosmos 1092 Rocket 4.0 18:29:53 10° S 18:36:04 83° W 18:42:14 10° N
SAR-Lupe-1 4.5 18:34:04 20° NE 18:36:09 40° E 18:39:33 10° S
CZ-4B R/B 1.6 18:33:49 10° N 18:37:07 67° WNW 18:40:18 10° SSW
CZ-2C R/B 3.6 18:33:45 11° NE 18:38:20 27° E 18:43:04 10° SSE
Cosmos 1328 4.0 18:34:25 10° SSW 18:38:24 73° W 18:42:22 10° N
CZ-2D R/B 3.7 18:36:47 10° S 18:40:34 62° W 18:44:22 10° NNW
MOS 1 Rocket 3.0 18:40:41 10° NNE 18:44:59 86° W 18:49:20 10° SSW
Cosmos 1048 Rocket 4.2 18:41:01 10° NNW 18:45:58 45° ENE 18:49:36 17° SE
Cosmos-2242 2.9 18:42:15 10° N 18:46:34 86° ENE 18:50:54 10° S
COSMO-SKYMED 1 3.0 18:45:56 10° N 18:50:15 63° WNW 18:54:32 10° SSW
Meteor 2-15 4.4 18:44:10 10° N 18:50:22 88° E 18:56:31 10° S
Meteor 1-11 4.1 18:45:46 10° S 18:51:26 83° E 18:57:06 10° NNE
Cosmos 1758 Rocket 3.7 18:50:00 10° SSW 18:54:28 80° W 18:59:00 10° N
USA 290 3.1 18:51:43 10° NNW 18:54:50 50° WSW 18:57:55 10° S
Cosmos 1937 Rocket 4.0 18:51:58 10° SW 18:57:14 63° WNW 19:02:33 10° NNE
Cosmos 2098 Rocket 4.4 18:51:02 10° S 18:58:29 86° W 19:05:38 10° N
SL-08 RB Rocket 3.8 18:59:18 27° SE 19:01:24 48° ENE 19:05:43 10° N
CSL-04 Debris 4.0 18:58:13 10° SSE 19:03:35 73° ENE 19:08:58 10° NNW
Cosmos 2221 4.2 19:02:04 10° N 19:03:42 20° NNE 19:03:42 20° NNE
Helios 1A Rocket 2.9 19:02:15 10° SSE 19:06:24 88° WSW 19:10:34 10° NNW
Cosmos 389 Rocket 4.1 19:04:27 10° N 19:05:55 22° N 19:05:55 22° N
Cosmos 1833 Rocket 3.4 19:02:34 10° NW 19:08:04 55° WSW 19:13:31 10° S
H-2A R/B 2.2 19:03:06 10° S 19:08:09 76° WSW 19:13:25 10° NNW
Cosmos 1125 Rocket 4.1 19:04:36 10° SSE 19:08:41 35° ESE 19:08:41 35° ESE
Cosmos 2298 Rocket 4.0 19:06:44 10° S 19:11:54 56° ESE 19:13:35 39° NE
Cosmos 1689 Rocket 2.8 19:13:24 47° SW 19:13:24 47° SW 19:15:39 10° SSW
Cosmos 2266 Rocket 4.0 19:08:17 10° SSE 19:14:15 51° E 19:20:10 10° NNE
SJ 16-02 4.1 19:13:24 10° W 19:15:34 13° NW 19:17:44 10° NNW
YAOGAN 1 3.3 19:12:12 10° S 19:16:26 55° W 19:20:42 10° NNW
NOSS 2-2 (C) 4.4 19:13:18 10° NW 19:18:25 55° NE 19:20:07 43° E
HJ-1C 3.6 19:20:23 67° W 19:20:23 67° W 19:23:42 10° NNW
In-Cosmos 22 Rocket 4.1 19:18:10 10° S 19:23:53 68° E 19:29:31 10° NNE
X-37B 2.6 19:21:24 10° WSW 19:23:54 22° SSW 19:23:54 22° SSW
Cosmos 1825 Rocket 4.4 19:22:05 10° SSW 19:26:22 51° WNW 19:30:43 10° N
Cosmos 1553 Rocket 4.4 19:20:44 10° NNW 19:27:03 64° W 19:33:16 10° S
Cosmos 1943 Rocket 4.4 19:23:16 10° SSE 19:23:18 10° SSE 19:23:18 10° SSE
ISS -2.4 19:24:31 10° WNW 19:26:49 36° NW 19:26:49 36° NW
Cosmos 2082 Rocket 2.4 19:22:25 10° NNW 19:28:08 70° WSW 19:33:42 10° SSE
Cosmos 1241 Rocket 4.5 19:25:02 10° SSW 19:31:27 67° ESE 19:33:15 48° ENE
CZ-4 R/B 3.4 19:31:41 10° SSW 19:35:09 28° W 19:38:37 10° NW
ERS-2 3.9 19:33:12 15° NNW 19:35:37 32° WNW 19:38:52 10° SW
MetOp-A 4.1 19:37:46 63° NE 19:37:46 63° NE 19:42:43 10° N
Meteor 2-21 4.3 19:33:45 10° S 19:39:49 74° E 19:45:57 10° NNE
NOSS 2-2 (E) 4.4 19:36:13 10° NW 19:41:42 83° NE 19:43:31 52° SE
ATLAS 5 CENTAUR R/B 4.0 19:39:49 10° NNW 19:42:29 15° N 19:42:29 15° N
CSL-04 Rocket 4.2 19:39:27 10° S 19:44:49 58° WSW 19:50:17 10° NNW
Cosmos 2315 Rocket 3.8 19:39:35 10° N 19:45:50 71° E 19:46:33 64° ESE
Cosmos 883 Rocket 4.3 19:40:25 10° N 19:46:39 84° E 19:50:11 27° SSE
ATLAS 2AS CENTAUR R/B 4.1 19:40:45 10° NW 19:47:05 26° NNE 19:48:21 25° NNE
Meteor 2-14 Rocket 4.2 19:41:46 10° S 19:47:49 81° E 19:53:57 10° NNE
Ariane Rocket 4.2 19:51:36 30° N 19:51:36 30° N 19:54:11 10° N
IRS-1A Rocket 4.4 19:51:16 61° NNE 19:51:16 61° NNE 19:56:20 10° N
S3M 4.5 19:47:34 10° NNW 19:53:33 57° W 19:59:32 10° S
USA 234 3.7 19:53:12 44° NNE 19:53:59 46° NNE 20:00:11 10° WNW
Cosmos 2278 Rocket 3.3 19:50:25 10° WSW 19:55:45 40° NW 19:59:05 21° N
CZ-4C R/B 3.9 19:51:29 10° NW 19:56:57 27° NNE 19:56:57 27° NNE
Cosmos 1655 Rocket 4.2 19:51:20 10° SSW 19:57:30 67° WNW 20:03:43 10° N
Cosmos 44 Rocket 3.8 19:57:53 10° SW 20:02:05 59° W 20:02:05 59° W
USA 281 4.3 20:04:50 29° NNE 20:04:50 29° NNE 20:08:42 10° NNW
CZ-2C R/B 3.4 20:15:10 20° N 20:18:52 52° WNW 20:24:17 10° SW
ATLAS 5 CENTAUR R/B 4.5 20:21:40 10° SSW 20:39:15 50° S 20:39:15 50° S
ATLAS 2AS CENTAUR R/B 4.5 21:32:28 10° NW 21:35:47 27° NNW 21:35:47 27° NNW
